Time,TemperatureF,DewpointF,PressureIn,WindDirection,WindDirectionDegrees,WindSpeedMPH,WindSpeedGustMPH,Humidity,HourlyPrecipIn,Conditions,Clouds,dailyrainin,SolarRadiationWatts/m^2,SoftwareType,DateUTC
2013-09-04 00:03:00,58.6,56.0,29.96,NNW,342,0.0,0.0,91,0.00,,,0.00,0,weatherlink.com 1.10,2013-09-04 04:03:00,
2013-09-04 00:18:00,58.4,56.0,29.96,NNW,342,0.0,1.0,91,0.00,,,0.00,0,weatherlink.com 1.10,2013-09-04 04:18:00,
2013-09-04 00:33:00,58.2,56.0,29.97,NNW,342,0.0,0.0,92,0.00,,,0.00,0,weatherlink.com 1.10,2013-09-04 04:33:00,
2013-09-04 00:48:00,57.8,55.0,29.97,NNW,342,0.0,1.0,91,0.00,,,0.00,0,weatherlink.com 1.10,2013-09-04 04:48:00,
2013-09-04 01:04:00,57.6,55.0,29.97,NNW,342,0.0,0.0,92,0.00,,,0.00,0,weatherlink.com 1.10,2013-09-04 05:04:00,
2013-09-04 01:18:00,57.3,55.0,29.97,NNW,342,0.0,0.0,92,0.00,,,0.00,0,weatherlink.com 1.10,2013-09-04 05:18:00,
2013-09-04 01:34:00,57.1,55.0,29.97,NNW,342,0.0,0.0,93,0.00,,,0.00,0,weatherlink.com 1.10,2013-09-04 05:34:00,
2013-09-04 01:49:00,56.8,55.0,29.97,NNW,342,0.0,0.0,92,0.00,,,0.00,0,weatherlink.com 1.10,2013-09-04 05:49:00,
2013-09-04 02:04:00,56.6,55.0,29.98,NNW,342,0.0,0.0,93,0.00,,,0.00,0,weatherlink.com 1.10,2013-09-04 06:04:00,
2013-09-04 02:19:00,56.4,55.0,29.98,NNW,342,0.0,0.0,93,0.00,,,0.00,0,weatherlink.com 1.10,2013-09-04 06:19:00,
2013-09-04 02:34:00,56.1,54.0,29.98,NNW,342,0.0,0.0,93,0.00,,,0.00,0,weatherlink.com 1.10,2013-09-04 06:34:00,
2013-09-04 02:49:00,55.9,54.0,29.98,NNW,342,0.0,0.0,94,0.00,,,0.00,0,weatherlink.com 1.10,2013-09-04 06:49:00,
2013-09-04 03:04:00,55.9,54.0,29.99,NNW,342,0.0,0.0,94,0.00,,,0.00,0,weatherlink.com 1.10,2013-09-04 07:04:00,
2013-09-04 03:19:00,55.7,54.0,29.99,NNW,342,0.0,0.0,94,0.00,,,0.00,0,weatherlink.com 1.10,2013-09-04 07:19:00,
2013-09-04 03:34:00,55.6,54.0,29.98,NNW,342,0.0,0.0,94,0.00,,,0.00,0,weatherlink.com 1.10,2013-09-04 07:34:00,
2013-09-04 03:49:00,55.3,54.0,29.99,NNW,342,0.0,0.0,94,0.00,,,0.00,0,weatherlink.com 1.10,2013-09-04 07:49:00,
2013-09-04 04:04:00,55.0,53.0,29.99,NNW,342,0.0,0.0,94,0.00,,,0.00,0,weatherlink.com 1.10,2013-09-04 08:04:00,
2013-09-04 04:19:00,54.8,53.0,30.00,NNW,342,0.0,0.0,94,0.00,,,0.00,0,weatherlink.com 1.10,2013-09-04 08:19:00,
2013-09-04 04:34:00,54.5,53.0,29.99,NNW,342,0.0,1.0,94,0.00,,,0.00,0,weatherlink.com 1.10,2013-09-04 08:34:00,
2013-09-04 04:49:00,54.4,53.0,30.00,NNW,342,0.0,0.0,94,0.00,,,0.00,0,weatherlink.com 1.10,2013-09-04 08:49:00,
2013-09-04 05:04:00,54.2,53.0,30.00,NNW,342,0.0,0.0,94,0.00,,,0.00,0,weatherlink.com 1.10,2013-09-04 09:04:00,
2013-09-04 05:19:00,54.2,53.0,29.99,NNW,342,0.0,1.0,95,0.00,,,0.00,0,weatherlink.com 1.10,2013-09-04 09:19:00,
2013-09-04 05:34:00,54.2,53.0,30.00,NNW,342,0.0,0.0,94,0.00,,,0.00,0,weatherlink.com 1.10,2013-09-04 09:34:00,
2013-09-04 05:49:00,54.0,52.0,30.00,NNW,342,0.0,0.0,94,0.00,,,0.00,0,weatherlink.com 1.10,2013-09-04 09:49:00,
2013-09-04 06:04:00,53.9,53.0,30.00,NNW,342,0.0,0.0,95,0.00,,,0.00,0,weatherlink.com 1.10,2013-09-04 10:04:00,
2013-09-04 06:19:00,53.9,53.0,30.01,NNW,342,0.0,0.0,95,0.00,,,0.00,0,weatherlink.com 1.10,2013-09-04 10:19:00,
2013-09-04 06:34:00,53.8,52.0,30.01,NNW,342,0.0,1.0,94,0.00,,,0.00,0,weatherlink.com 1.10,2013-09-04 10:34:00,
2013-09-04 06:49:00,53.6,52.0,30.01,NNW,342,0.0,0.0,94,0.00,,,0.00,0,weatherlink.com 1.10,2013-09-04 10:49:00,
2013-09-04 07:04:00,53.6,52.0,30.02,NNW,342,0.0,0.0,95,0.00,,,0.00,0,weatherlink.com 1.10,2013-09-04 11:04:00,
2013-09-04 07:19:00,53.6,52.0,30.02,NNW,342,0.0,0.0,95,0.00,,,0.00,7,weatherlink.com 1.10,2013-09-04 11:19:00,
2013-09-04 07:34:00,53.6,52.0,30.03,NNW,342,0.0,1.0,94,0.00,,,0.00,14,weatherlink.com 1.10,2013-09-04 11:34:00,
2013-09-04 07:49:00,54.3,53.0,30.02,NNW,342,0.0,1.0,95,0.00,,,0.00,26,weatherlink.com 1.10,2013-09-04 11:49:00,
2013-09-04 08:04:00,55.2,54.0,30.02,NNW,342,0.0,0.0,95,0.00,,,0.00,62,weatherlink.com 1.10,2013-09-04 12:04:00,
2013-09-04 08:19:00,56.4,55.0,30.03,NNW,342,0.0,2.0,94,0.00,,,0.00,102,weatherlink.com 1.10,2013-09-04 12:19:00,
2013-09-04 08:34:00,57.7,56.0,30.04,NNW,342,1.0,2.0,94,0.00,,,0.00,151,weatherlink.com 1.10,2013-09-04 12:34:00,
2013-09-04 08:49:00,59.5,57.0,30.04,NNW,342,0.0,4.0,91,0.00,,,0.00,200,weatherlink.com 1.10,2013-09-04 12:49:00,
2013-09-04 09:04:00,61.1,58.0,30.03,NW,320,4.0,5.0,88,0.00,,,0.00,248,weatherlink.com 1.10,2013-09-04 13:04:00,
2013-09-04 09:20:00,62.0,58.0,30.04,NW,316,3.0,4.0,87,0.00,,,0.00,287,weatherlink.com 1.10,2013-09-04 13:20:00,
2013-09-04 09:35:00,63.1,59.0,30.04,NW,310,4.0,5.0,85,0.00,,,0.00,336,weatherlink.com 1.10,2013-09-04 13:35:00,
2013-09-04 09:50:00,64.7,59.0,30.04,West,271,5.0,8.0,81,0.00,,,0.00,390,weatherlink.com 1.10,2013-09-04 13:50:00,
2013-09-04 10:05:00,65.5,59.0,30.04,West,280,3.0,7.0,79,0.00,,,0.00,432,weatherlink.com 1.10,2013-09-04 14:05:00,
2013-09-04 10:20:00,66.8,59.0,30.04,WSW,256,0.0,8.0,77,0.00,,,0.00,476,weatherlink.com 1.10,2013-09-04 14:20:00,
2013-09-04 10:35:00,67.9,59.0,30.04,WNW,290,5.0,8.0,74,0.00,,,0.00,520,weatherlink.com 1.10,2013-09-04 14:35:00,
2013-09-04 10:50:00,69.0,60.0,30.05,WNW,289,7.0,9.0,73,0.00,,,0.00,554,weatherlink.com 1.10,2013-09-04 14:50:00,
2013-09-04 11:05:00,70.0,61.0,30.04,WNW,295,5.0,6.0,72,0.01,,,0.01,589,weatherlink.com 1.10,2013-09-04 15:05:00,
2013-09-04 11:20:00,70.5,60.0,30.05,West,277,2.0,10.0,70,0.01,,,0.01,626,weatherlink.com 1.10,2013-09-04 15:20:00,
2013-09-04 11:35:00,71.0,60.0,30.03,WSW,258,2.0,10.0,69,0.01,,,0.01,659,weatherlink.com 1.10,2013-09-04 15:35:00,
2013-09-04 11:50:00,71.4,61.0,30.03,SW,227,7.0,10.0,69,0.00,,,0.01,691,weatherlink.com 1.10,2013-09-04 15:50:00,
2013-09-04 12:05:00,72.4,61.0,30.04,WSW,253,3.0,10.0,67,0.00,,,0.01,712,weatherlink.com 1.10,2013-09-04 16:05:00,
2013-09-04 12:20:00,73.4,60.0,30.03,West,275,2.0,10.0,63,0.00,,,0.01,735,weatherlink.com 1.10,2013-09-04 16:20:00,
2013-09-04 12:35:00,73.9,60.0,30.04,West,267,3.0,10.0,63,0.00,,,0.01,754,weatherlink.com 1.10,2013-09-04 16:35:00,
2013-09-04 12:50:00,74.5,59.0,30.04,West,268,5.0,12.0,59,0.00,,,0.01,775,weatherlink.com 1.10,2013-09-04 16:50:00,
2013-09-04 13:21:00,76.2,60.0,30.03,West,276,0.0,10.0,57,0.00,,,0.01,796,weatherlink.com 1.10,2013-09-04 17:21:00,
2013-09-04 13:36:00,76.3,59.0,30.03,NW,304,7.0,13.0,55,0.00,,,0.01,793,weatherlink.com 1.10,2013-09-04 17:36:00,
2013-09-04 13:51:00,76.9,59.0,30.03,West,272,0.0,10.0,54,0.00,,,0.01,809,weatherlink.com 1.10,2013-09-04 17:51:00,
2013-09-04 14:06:00,77.4,60.0,30.02,WNW,300,3.0,12.0,55,0.00,,,0.01,809,weatherlink.com 1.10,2013-09-04 18:06:00,
2013-09-04 14:21:00,77.5,59.0,30.03,WNW,294,3.0,12.0,54,0.00,,,0.01,796,weatherlink.com 1.10,2013-09-04 18:21:00,
2013-09-04 14:36:00,78.7,60.0,30.02,WNW,289,1.0,10.0,52,0.00,,,0.01,780,weatherlink.com 1.10,2013-09-04 18:36:00,
2013-09-04 14:51:00,78.7,60.0,30.02,WNW,285,3.0,10.0,52,0.00,,,0.01,745,weatherlink.com 1.10,2013-09-04 18:51:00,
2013-09-04 15:06:00,79.4,60.0,30.02,NW,310,2.0,13.0,52,0.00,,,0.01,679,weatherlink.com 1.10,2013-09-04 19:06:00,
2013-09-04 15:21:00,79.8,59.0,30.02,NW,305,7.0,10.0,49,0.00,,,0.01,844,weatherlink.com 1.10,2013-09-04 19:21:00,
2013-09-04 15:36:00,79.4,58.0,30.02,WNW,291,5.0,13.0,48,0.00,,,0.01,309,weatherlink.com 1.10,2013-09-04 19:36:00,
2013-09-04 15:51:00,79.5,57.0,30.02,WNW,302,6.0,11.0,47,0.00,,,0.01,738,weatherlink.com 1.10,2013-09-04 19:51:00,
2013-09-04 16:06:00,80.1,59.0,30.00,WSW,254,2.0,9.0,48,0.00,,,0.01,503,weatherlink.com 1.10,2013-09-04 20:06:00,
2013-09-04 16:21:00,80.1,58.0,30.00,NNE,23,3.0,11.0,47,0.00,,,0.01,728,weatherlink.com 1.10,2013-09-04 20:21:00,
2013-09-04 16:36:00,81.0,58.0,30.00,WNW,296,4.0,9.0,45,0.00,,,0.01,643,weatherlink.com 1.10,2013-09-04 20:36:00,
2013-09-04 16:51:00,81.1,58.0,29.99,WNW,289,3.0,9.0,46,0.00,,,0.01,545,weatherlink.com 1.10,2013-09-04 20:51:00,
2013-09-04 17:06:00,80.9,58.0,29.99,West,263,2.0,11.0,45,0.00,,,0.01,506,weatherlink.com 1.10,2013-09-04 21:06:00,
2013-09-04 17:21:00,81.4,56.0,29.98,West,271,7.0,9.0,42,0.00,,,0.01,397,weatherlink.com 1.10,2013-09-04 21:21:00,
2013-09-04 17:36:00,81.4,57.0,29.98,WNW,298,5.0,9.0,44,0.00,,,0.01,343,weatherlink.com 1.10,2013-09-04 21:36:00,
2013-09-04 17:51:00,80.8,56.0,29.98,NW,314,0.0,7.0,43,0.00,,,0.01,438,weatherlink.com 1.10,2013-09-04 21:51:00,
2013-09-04 18:06:00,81.2,57.0,29.98,WNW,286,6.0,8.0,43,0.00,,,0.01,341,weatherlink.com 1.10,2013-09-04 22:06:00,
2013-09-04 18:21:00,80.7,57.0,29.98,NW,314,3.0,9.0,44,0.00,,,0.01,297,weatherlink.com 1.10,2013-09-04 22:21:00,
2013-09-04 18:36:00,80.5,57.0,29.98,WNW,303,4.0,7.0,44,0.00,,,0.01,258,weatherlink.com 1.10,2013-09-04 22:36:00,
2013-09-04 18:51:00,80.3,55.0,29.99,NW,310,3.0,8.0,42,0.00,,,0.01,195,weatherlink.com 1.10,2013-09-04 22:51:00,
2013-09-04 19:06:00,80.4,56.0,29.99,NNW,341,7.0,7.0,44,0.00,,,0.01,153,weatherlink.com 1.10,2013-09-04 23:06:00,
2013-09-04 19:21:00,80.0,57.0,29.98,NNW,341,1.0,6.0,46,0.00,,,0.01,95,weatherlink.com 1.10,2013-09-04 23:21:00,
2013-09-04 19:36:00,79.4,58.0,29.99,NW,324,3.0,5.0,48,0.00,,,0.01,44,weatherlink.com 1.10,2013-09-04 23:36:00,
2013-09-04 19:51:00,78.2,58.0,29.98,NW,324,1.0,3.0,50,0.00,,,0.01,16,weatherlink.com 1.10,2013-09-04 23:51:00,
2013-09-04 20:06:00,77.2,60.0,29.98,NW,324,0.0,0.0,56,0.00,,,0.01,7,weatherlink.com 1.10,2013-09-05 00:06:00,
2013-09-04 20:21:00,75.0,60.0,29.98,NW,324,0.0,0.0,59,0.00,,,0.01,0,weatherlink.com 1.10,2013-09-05 00:21:00,
2013-09-04 20:36:00,73.3,60.0,30.00,NW,324,0.0,0.0,63,0.00,,,0.01,0,weatherlink.com 1.10,2013-09-05 00:36:00,
2013-09-04 20:51:00,71.7,60.0,30.00,NW,324,0.0,0.0,67,0.00,,,0.01,0,weatherlink.com 1.10,2013-09-05 00:51:00,
2013-09-04 21:06:00,70.4,60.0,30.00,NW,324,0.0,0.0,70,0.00,,,0.01,0,weatherlink.com 1.10,2013-09-05 01:06:00,
2013-09-04 21:21:00,69.6,60.0,30.01,NW,324,0.0,0.0,72,0.00,,,0.01,0,weatherlink.com 1.10,2013-09-05 01:21:00,
2013-09-04 21:36:00,68.9,60.0,30.02,NW,324,0.0,0.0,74,0.00,,,0.01,0,weatherlink.com 1.10,2013-09-05 01:36:00,
2013-09-04 21:51:00,68.3,60.0,30.01,NW,324,0.0,0.0,75,0.00,,,0.01,0,weatherlink.com 1.10,2013-09-05 01:51:00,
2013-09-04 22:06:00,67.5,60.0,30.02,NW,324,0.0,0.0,77,0.00,,,0.01,0,weatherlink.com 1.10,2013-09-05 02:06:00,
2013-09-04 22:21:00,67.0,60.0,30.02,NW,324,0.0,0.0,79,0.00,,,0.01,0,weatherlink.com 1.10,2013-09-05 02:21:00,
2013-09-04 22:36:00,66.4,60.0,30.02,NW,324,0.0,0.0,81,0.00,,,0.01,0,weatherlink.com 1.10,2013-09-05 02:36:00,
2013-09-04 22:51:00,65.8,60.0,30.02,NW,324,0.0,0.0,82,0.00,,,0.01,0,weatherlink.com 1.10,2013-09-05 02:51:00,
2013-09-04 23:06:00,65.2,60.0,30.02,NW,324,0.0,1.0,83,0.00,,,0.01,0,weatherlink.com 1.10,2013-09-05 03:06:00,
2013-09-04 23:21:00,64.3,60.0,30.02,NW,324,0.0,1.0,85,0.00,,,0.01,0,weatherlink.com 1.10,2013-09-05 03:21:00,
2013-09-04 23:36:00,63.9,60.0,30.03,NW,324,0.0,0.0,86,0.00,,,0.01,0,weatherlink.com 1.10,2013-09-05 03:36:00,
2013-09-04 23:51:00,63.5,59.0,30.02,NW,324,0.0,0.0,86,0.00,,,0.01,0,weatherlink.com 1.10,2013-09-05 03:51:00,